When you browse on this site, cookies collect data to enhance your experience and personalize the content and advertising you see.
Visit our Privacy Policy to learn more. By continuing to use the site, you agree to this use of cookies and data.
  • In Hungary
  • List of Countries
  • For 7 days
  • Water Temperature
  • Satellite Maps
  • Weather Map
  • News
  • Weather Widgets
  • user-avatar
    Login

    Hourly Weather Alcabideche

    Today, 18 July, Thursday

    Time Temperature Precipitation Wind Pressure Humidity
    00:00 +16°C° 0 mm 9 mps 752 mmHg 77%
    01:00 +16°C° 0 mm 9 mps 752 mmHg 78%
    02:00 +16°C° 0 mm 9 mps 752 mmHg 79%
    03:00 +16°C° 0 mm 9 mps 751 mmHg 80%
    04:00 +16°C° 0 mm 8 mps 751 mmHg 81%
    05:00 +16°C° 0 mm 8 mps 751 mmHg 82%
    06:00 +18°C° 0 mm 8 mps 752 mmHg 74%
    07:00 +20°C° 0 mm 8 mps 752 mmHg 67%
    08:00 +22°C° 0 mm 9 mps 752 mmHg 59%
    09:00 +23°C° 0 mm 9 mps 752 mmHg 54%
    10:00 +26°C° 0 mm 9 mps 752 mmHg 49%
    11:00 +28°C° 0 mm 9 mps 752 mmHg 43%
    12:00 +28°C° 0 mm 9 mps 751 mmHg 43%
    13:00 +28°C° 0 mm 10 mps 751 mmHg 43%
    14:00 +28°C° 0 mm 10 mps 751 mmHg 42%
    15:00 +27°C° 0 mm 10 mps 750 mmHg 47%
    16:00 +26°C° 0 mm 10 mps 750 mmHg 51%
    17:00 +26°C° 0 mm 10 mps 750 mmHg 56%
    18:00 +23°C° 0 mm 10 mps 750 mmHg 64%
    19:00 +21°C° 0 mm 10 mps 750 mmHg 73%
    20:00 +19°C° 0 mm 9 mps 751 mmHg 81%
    21:00 +19°C° 0 mm 9 mps 751 mmHg 83%
    22:00 +18°C° 0 mm 9 mps 751 mmHg 84%
    23:00 +18°C° 0 mm 9 mps 751 mmHg 86%

    Tomorrow, 19 July, Friday

    Time Temperature Precipitation Wind Pressure Humidity
    00:00 +18°C° 0 mm 8 mps 750 mmHg 86%
    01:00 +18°C° 0 mm 7 mps 750 mmHg 87%
    02:00 +18°C° 0 mm 7 mps 750 mmHg 88%
    03:00 +19°C° 0 mm 6 mps 749 mmHg 88%
    04:00 +17°C° 0 mm 6 mps 749 mmHg 89%
    05:00 +17°C° 0 mm 5 mps 749 mmHg 89%
    06:00 +20°C° 0 mm 6 mps 749 mmHg 81%
    07:00 +22°C° 0 mm 6 mps 750 mmHg 73%
    08:00 +24°C° 0 mm 6 mps 750 mmHg 64%
    09:00 +26°C° 0 mm 7 mps 750 mmHg 59%
    10:00 +28°C° 0 mm 7 mps 750 mmHg 53%
    11:00 +31°C° 0 mm 8 mps 750 mmHg 48%
    12:00 +31°C° 0 mm 8 mps 749 mmHg 46%
    13:00 +31°C° 0 mm 9 mps 749 mmHg 43%
    14:00 +31°C° 0 mm 9 mps 749 mmHg 41%
    15:00 +29°C° 0 mm 9 mps 749 mmHg 44%
    16:00 +27°C° 0 mm 10 mps 749 mmHg 46%
    17:00 +26°C° 0 mm 10 mps 749 mmHg 49%
    18:00 +24°C° 0 mm 10 mps 749 mmHg 59%
    19:00 +22°C° 0 mm 10 mps 750 mmHg 68%
    20:00 +21°C° 0 mm 10 mps 750 mmHg 78%
    21:00 +21°C° 0 mm 10 mps 750 mmHg 80%
    22:00 +19°C° 0 mm 9 mps 750 mmHg 82%
    23:00 +19°C° 0 mm 9 mps 750 mmHg 84%

    Day after tomorrow, 20 July, Saturday

    Time Temperature Precipitation Wind Pressure Humidity
    00:00 +19°C° 0 mm 9 mps 750 mmHg 85%
    01:00 +19°C° 0 mm 9 mps 750 mmHg 86%
    02:00 +20°C° 0 mm 8 mps 750 mmHg 86%
    03:00 +20°C° 0 mm 8 mps 750 mmHg 85%
    04:00 +20°C° 0 mm 7 mps 750 mmHg 84%
    05:00 +18°C° 0 mm 7 mps 750 mmHg 83%
    06:00 +21°C° 0 mm 7 mps 750 mmHg 75%
    07:00 +23°C° 0 mm 8 mps 751 mmHg 67%
    08:00 +26°C° 0 mm 8 mps 751 mmHg 59%
    09:00 +27°C° 0 mm 8 mps 751 mmHg 54%
    10:00 +28°C° 0 mm 9 mps 751 mmHg 50%
    11:00 +31°C° 0 mm 9 mps 751 mmHg 46%
    12:00 +29°C° 0 mm 9 mps 751 mmHg 48%
    13:00 +29°C° 0 mm 9 mps 751 mmHg 49%
    14:00 +29°C° 0 mm 10 mps 751 mmHg 51%
    15:00 +28°C° 0 mm 10 mps 751 mmHg 54%
    16:00 +27°C° 0 mm 10 mps 751 mmHg 56%
    17:00 +26°C° 0 mm 10 mps 751 mmHg 58%
    18:00 +23°C° 0 mm 10 mps 751 mmHg 61%
    19:00 +22°C° 0 mm 9 mps 752 mmHg 63%
    20:00 +21°C° 0 mm 9 mps 752 mmHg 66%
    21:00 +19°C° 0 mm 9 mps 752 mmHg 67%
    22:00 +19°C° 0 mm 9 mps 752 mmHg 68%
    23:00 +20°C° 0 mm 8 mps 752 mmHg 69%

    21 July, Sunday

    Time Temperature Precipitation Wind Pressure Humidity
    00:00 +18°C° 0 mm 8 mps 752 mmHg 73%
    01:00 +18°C° 0 mm 8 mps 752 mmHg 77%
    02:00 +18°C° 0 mm 8 mps 751 mmHg 81%
    03:00 +17°C° 0 mm 7 mps 752 mmHg 81%
    04:00 +17°C° 0 mm 7 mps 752 mmHg 81%
    05:00 +17°C° 0 mm 6 mps 752 mmHg 82%
    06:00 +20°C° 0 mm 7 mps 752 mmHg 75%
    07:00 +21°C° 0 mm 7 mps 752 mmHg 68%
    08:00 +23°C° 0 mm 7 mps 752 mmHg 61%
    09:00 +24°C° 0 mm 7 mps 752 mmHg 56%
    10:00 +26°C° 0 mm 7 mps 752 mmHg 51%
    11:00 +28°C° 0 mm 7 mps 752 mmHg 47%
    12:00 +28°C° 0 mm 7 mps 752 mmHg 46%
    13:00 +28°C° 0 mm 8 mps 752 mmHg 46%
    14:00 +28°C° 0 mm 8 mps 752 mmHg 45%
    15:00 +27°C° 0 mm 8 mps 752 mmHg 50%
    16:00 +26°C° 0 mm 8 mps 752 mmHg 54%
    17:00 +24°C° 0 mm 8 mps 752 mmHg 58%
    18:00 +22°C° 0 mm 8 mps 752 mmHg 66%
    19:00 +21°C° 0 mm 8 mps 752 mmHg 74%
    20:00 +18°C° 0 mm 8 mps 753 mmHg 82%
    21:00 +18°C° 0 mm 7 mps 753 mmHg 84%
    22:00 +18°C° 0 mm 7 mps 753 mmHg 85%
    23:00 +18°C° 0 mm 7 mps 753 mmHg 87%

    22 July, Monday

    Time Temperature Precipitation Wind Pressure Humidity
    00:00 +19°C° 0 mm 6 mps 752 mmHg 87%
    01:00 +17°C° 0 mm 6 mps 752 mmHg 87%
    02:00 +17°C° 0 mm 5 mps 752 mmHg 88%
    03:00 +17°C° 0 mm 5 mps 752 mmHg 87%
    04:00 +17°C° 0 mm 5 mps 752 mmHg 86%
    05:00 +17°C° 0 mm 5 mps 752 mmHg 86%
    06:00 +20°C° 0 mm 5 mps 752 mmHg 78%
    07:00 +21°C° 0 mm 5 mps 752 mmHg 71%
    08:00 +23°C° 0 mm 5 mps 753 mmHg 64%
    09:00 +25°C° 0 mm 5 mps 753 mmHg 58%
    10:00 +27°C° 0 mm 6 mps 753 mmHg 53%
    11:00 +28°C° 0 mm 6 mps 753 mmHg 47%
    12:00 +28°C° 0 mm 6 mps 752 mmHg 49%
    13:00 +28°C° 0 mm 7 mps 752 mmHg 50%
    14:00 +28°C° 0 mm 7 mps 752 mmHg 51%
    15:00 +26°C° 0 mm 8 mps 752 mmHg 56%
    16:00 +24°C° 0 mm 8 mps 752 mmHg 62%
    17:00 +23°C° 0 mm 8 mps 751 mmHg 67%
    18:00 +22°C° 0 mm 8 mps 752 mmHg 72%
    19:00 +21°C° 0 mm 8 mps 752 mmHg 76%
    20:00 +20°C° 0 mm 8 mps 752 mmHg 81%
    21:00 +20°C° 0 mm 8 mps 752 mmHg 82%
    22:00 +20°C° 0 mm 7 mps 752 mmHg 83%
    23:00 +18°C° 0 mm 7 mps 752 mmHg 84%

    23 July, Tuesday

    Time Temperature Precipitation Wind Pressure Humidity
    00:00 +19°C° 0 mm 6 mps 752 mmHg 86%
    01:00 +19°C° 0 mm 6 mps 752 mmHg 87%
    02:00 +17°C° 0 mm 5 mps 751 mmHg 88%
    03:00 +17°C° 0 mm 5 mps 751 mmHg 88%
    04:00 +17°C° 0 mm 5 mps 751 mmHg 88%
    05:00 +17°C° 0 mm 5 mps 751 mmHg 87%
    06:00 +20°C° 0 mm 5 mps 752 mmHg 77%
    07:00 +22°C° 0 mm 5 mps 752 mmHg 67%
    08:00 +23°C° 0 mm 5 mps 752 mmHg 57%
    09:00 +26°C° 0 mm 5 mps 752 mmHg 54%
    10:00 +27°C° 0 mm 5 mps 752 mmHg 50%
    11:00 +28°C° 0 mm 6 mps 752 mmHg 46%
    12:00 +28°C° 0 mm 6 mps 751 mmHg 47%
    13:00 +28°C° 0 mm 6 mps 751 mmHg 47%
    14:00 +28°C° 0 mm 6 mps 751 mmHg 48%
    15:00 +27°C° 0 mm 6 mps 751 mmHg 53%
    16:00 +26°C° 0 mm 6 mps 751 mmHg 58%
    17:00 +24°C° 0 mm 6 mps 751 mmHg 64%
    18:00 +23°C° 0 mm 6 mps 751 mmHg 69%
    19:00 +21°C° 0 mm 5 mps 751 mmHg 75%
    20:00 +20°C° 0 mm 5 mps 751 mmHg 80%
    21:00 +20°C° 0 mm 5 mps 751 mmHg 81%
    22:00 +20°C° 0 mm 5 mps 751 mmHg 82%
    23:00 +20°C° 0 mm 5 mps 751 mmHg 82%
    Show more